AER65 PACD-PADU

Flight info

Callsign AER65
Flight time 0h 41m
Altitude 16000
Route CDB MORDI ROFZU
Aircraft B350/L-SBGRW/S

Departure

Time 2026-04-12 00:51
Airport Cold Bay Airport (PACD)

Arrival

Time 2026-04-12 01:32
Airport Tom Madsen (Dutch Harbor) Airport (PADU)
Time Latitude Longitude Altitude Speed Heading
2026-04-12 00:32 55.20194 -162.71941 96 ft 0 kts 246°
2026-04-12 00:47 55.20178 -162.72001 96 ft 13 kts 242°
2026-04-12 00:47 55.20159 -162.72131 95 ft 9 kts 257°
2026-04-12 00:47 55.20153 -162.72170 95 ft 0 kts 249°
2026-04-12 00:50 55.20150 -162.72186 95 ft 8 kts 247°
2026-04-12 00:50 55.20113 -162.72319 95 ft 12 kts 292°
2026-04-12 00:50 55.20292 -162.72454 95 ft 68 kts 339°
2026-04-12 00:50 55.20954 -162.72908 98 ft 128 kts 339°
2026-04-12 00:51 55.21890 -162.73523 311 ft 157 kts 340°
2026-04-12 00:51 55.22917 -162.74135 1101 ft 149 kts 341°
2026-04-12 00:51 55.23858 -162.74687 1937 ft 142 kts 341°
2026-04-12 00:51 55.24808 -162.75359 2501 ft 156 kts 332°
2026-04-12 00:52 55.25744 -162.76436 3063 ft 166 kts 319°
2026-04-12 00:52 55.26373 -162.78114 3791 ft 167 kts 291°
2026-04-12 00:52 55.26435 -162.80176 4425 ft 175 kts 262°
2026-04-12 00:52 55.26119 -162.82206 5072 ft 173 kts 255°
2026-04-12 00:53 55.25700 -162.84229 5627 ft 177 kts 253°
2026-04-12 00:53 55.25310 -162.86209 6373 ft 172 kts 257°
2026-04-12 00:53 55.24968 -162.88298 6818 ft 184 kts 258°
2026-04-12 00:53 55.24634 -162.90460 7450 ft 180 kts 259°
2026-04-12 00:54 55.24314 -162.92526 8191 ft 174 kts 259°
2026-04-12 00:54 55.23983 -162.94637 8650 ft 185 kts 260°
2026-04-12 00:54 55.23653 -162.96833 9271 ft 183 kts 259°
2026-04-12 00:54 55.23314 -162.98929 10019 ft 177 kts 258°
2026-04-12 00:55 55.22967 -163.01059 10493 ft 188 kts 259°
2026-04-12 00:55 55.22619 -163.03264 11043 ft 189 kts 258°
2026-04-12 00:55 55.22428 -163.04418 11406 ft 186 kts 258°
2026-04-12 00:55 55.22048 -163.06616 12009 ft 188 kts 258°
2026-04-12 00:56 55.21688 -163.08864 12488 ft 194 kts 258°
2026-04-12 00:56 55.21321 -163.11156 13063 ft 194 kts 258°
2026-04-12 00:56 55.20963 -163.13420 13669 ft 193 kts 259°
2026-04-12 00:56 55.20599 -163.15708 14187 ft 198 kts 258°
2026-04-12 00:57 55.20215 -163.18037 14704 ft 200 kts 258°
2026-04-12 00:57 55.19834 -163.20382 15257 ft 201 kts 258°
2026-04-12 00:57 55.19450 -163.22718 15795 ft 203 kts 258°
2026-04-12 00:57 55.19046 -163.25217 15976 ft 223 kts 258°
2026-04-12 00:58 55.18634 -163.27917 16009 ft 241 kts 257°
2026-04-12 00:58 55.18146 -163.30832 16012 ft 258 kts 256°
2026-04-12 00:58 55.17619 -163.33903 16013 ft 269 kts 257°
2026-04-12 00:58 55.17085 -163.37098 16013 ft 277 kts 257°
2026-04-12 00:59 55.16550 -163.40379 16013 ft 283 kts 257°
2026-04-12 00:59 55.16003 -163.43710 16012 ft 287 kts 257°
2026-04-12 00:59 55.15444 -163.47074 16013 ft 289 kts 257°
2026-04-12 00:59 55.14882 -163.50464 16014 ft 291 kts 257°
2026-04-12 01:00 55.14319 -163.53870 16014 ft 292 kts 257°
2026-04-12 01:00 55.13750 -163.57300 16013 ft 294 kts 257°
2026-04-12 01:00 55.13178 -163.60731 16013 ft 295 kts 257°
2026-04-12 01:00 55.12604 -163.64168 16014 ft 295 kts 257°
2026-04-12 01:01 55.12034 -163.67575 16011 ft 295 kts 257°
2026-04-12 01:01 55.11457 -163.71026 16013 ft 295 kts 257°
2026-04-12 01:01 55.10880 -163.74464 16012 ft 295 kts 256°
2026-04-12 01:01 55.10299 -163.77915 16012 ft 295 kts 256°
2026-04-12 01:02 55.09720 -163.81356 16011 ft 295 kts 257°
2026-04-12 01:02 55.09140 -163.84793 16011 ft 296 kts 256°
2026-04-12 01:02 55.08557 -163.88238 16012 ft 296 kts 256°
2026-04-12 01:02 55.07975 -163.91684 16013 ft 296 kts 257°
2026-04-12 01:03 55.07391 -163.95130 16010 ft 296 kts 256°
2026-04-12 01:03 55.06802 -163.98571 16012 ft 296 kts 256°
2026-04-12 01:03 55.06218 -164.02005 16012 ft 296 kts 256°
2026-04-12 01:03 55.05627 -164.05447 16013 ft 296 kts 256°
2026-04-12 01:04 55.05238 -164.07727 16011 ft 295 kts 256°
2026-04-12 01:04 55.04454 -164.12330 16012 ft 296 kts 256°
2026-04-12 01:04 55.03862 -164.15766 16012 ft 296 kts 256°
2026-04-12 01:04 55.03275 -164.19167 16010 ft 296 kts 256°
2026-04-12 01:05 55.02681 -164.22610 16013 ft 296 kts 256°
2026-04-12 01:05 55.02088 -164.26050 16012 ft 297 kts 256°
2026-04-12 01:05 55.01491 -164.29499 16011 ft 297 kts 256°
2026-04-12 01:05 55.01087 -164.31830 16011 ft 297 kts 256°
2026-04-12 01:06 55.00495 -164.35235 16012 ft 297 kts 256°
2026-04-12 01:06 54.99895 -164.38688 16010 ft 297 kts 256°
2026-04-12 01:06 54.99294 -164.42130 16010 ft 296 kts 256°
2026-04-12 01:06 54.98690 -164.45565 16011 ft 296 kts 256°
2026-04-12 01:07 54.98088 -164.49001 16012 ft 296 kts 256°
2026-04-12 01:07 54.97490 -164.52435 16010 ft 297 kts 256°
2026-04-12 01:07 54.96896 -164.55835 16010 ft 296 kts 256°
2026-04-12 01:08 54.95681 -164.62681 16010 ft 296 kts 256°
2026-04-12 01:08 54.94933 -164.66018 15977 ft 299 kts 244°
2026-04-12 01:08 54.93821 -164.69019 15639 ft 289 kts 237°
2026-04-12 01:08 54.92688 -164.71812 15260 ft 277 kts 239°
2026-04-12 01:09 54.91679 -164.74593 14874 ft 268 kts 242°
2026-04-12 01:09 54.90720 -164.77330 14498 ft 262 kts 241°
2026-04-12 01:09 54.89734 -164.80045 14119 ft 271 kts 240°
2026-04-12 01:09 54.88702 -164.82859 13860 ft 280 kts 240°
2026-04-12 01:10 54.87651 -164.85734 13638 ft 285 kts 240°
2026-04-12 01:10 54.86582 -164.88672 13413 ft 289 kts 240°
2026-04-12 01:10 54.85514 -164.91598 13196 ft 292 kts 240°
2026-04-12 01:10 54.84422 -164.94577 12974 ft 293 kts 240°
2026-04-12 01:11 54.83328 -164.97558 12746 ft 294 kts 240°
2026-04-12 01:11 54.82229 -165.00548 12531 ft 293 kts 240°
2026-04-12 01:11 54.81137 -165.03521 12305 ft 291 kts 240°
2026-04-12 01:11 54.80050 -165.06482 12083 ft 290 kts 240°
2026-04-12 01:12 54.78967 -165.09424 11858 ft 289 kts 240°
2026-04-12 01:12 54.77886 -165.12349 11636 ft 288 kts 240°
2026-04-12 01:12 54.76807 -165.15271 11410 ft 287 kts 240°
2026-04-12 01:12 54.75733 -165.18181 11186 ft 287 kts 240°
2026-04-12 01:13 54.74659 -165.21086 10961 ft 286 kts 240°
2026-04-12 01:13 54.73585 -165.23988 10740 ft 286 kts 240°
2026-04-12 01:13 54.72518 -165.26845 10515 ft 286 kts 240°
2026-04-12 01:13 54.71448 -165.29733 10290 ft 285 kts 240°
2026-04-12 01:14 54.70374 -165.32618 10065 ft 284 kts 240°
2026-04-12 01:14 54.69307 -165.35487 9840 ft 283 kts 240°
2026-04-12 01:14 54.68244 -165.38353 9614 ft 282 kts 240°
2026-04-12 01:14 54.67179 -165.41200 9390 ft 282 kts 240°
2026-04-12 01:15 54.66117 -165.44041 9165 ft 281 kts 240°
2026-04-12 01:15 54.65061 -165.46873 8942 ft 280 kts 240°
2026-04-12 01:15 54.64005 -165.49692 8715 ft 279 kts 240°
2026-04-12 01:15 54.62946 -165.52511 8490 ft 279 kts 240°
2026-04-12 01:16 54.61893 -165.55318 8269 ft 279 kts 240°
2026-04-12 01:16 54.60840 -165.58129 8039 ft 277 kts 240°
2026-04-12 01:16 54.59793 -165.60912 7815 ft 276 kts 240°
2026-04-12 01:16 54.58759 -165.63654 7594 ft 276 kts 240°
2026-04-12 01:17 54.57713 -165.66432 7366 ft 276 kts 240°
2026-04-12 01:17 54.56670 -165.69191 7142 ft 275 kts 240°
2026-04-12 01:17 54.55628 -165.71951 6918 ft 274 kts 240°
2026-04-12 01:17 54.54584 -165.74697 6692 ft 274 kts 239°
2026-04-12 01:18 54.53543 -165.77443 6468 ft 273 kts 240°
2026-04-12 01:18 54.52510 -165.80185 6242 ft 273 kts 240°
2026-04-12 01:18 54.51470 -165.82928 6018 ft 272 kts 239°
2026-04-12 01:18 54.50430 -165.85648 5793 ft 272 kts 240°
2026-04-12 01:19 54.49398 -165.88374 5567 ft 272 kts 240°
2026-04-12 01:19 54.48365 -165.91088 5343 ft 271 kts 240°
2026-04-12 01:19 54.47335 -165.93785 5118 ft 270 kts 240°
2026-04-12 01:19 54.46307 -165.96484 4893 ft 269 kts 240°
2026-04-12 01:20 54.45277 -165.99181 4667 ft 269 kts 240°
2026-04-12 01:20 54.44248 -166.01865 4442 ft 269 kts 240°
2026-04-12 01:20 54.43236 -166.04516 4219 ft 268 kts 240°
2026-04-12 01:20 54.42200 -166.07225 3988 ft 268 kts 239°
2026-04-12 01:21 54.41183 -166.09860 3772 ft 268 kts 239°
2026-04-12 01:21 54.40154 -166.12539 3547 ft 268 kts 239°
2026-04-12 01:21 54.39133 -166.15211 3381 ft 267 kts 239°
2026-04-12 01:21 54.38118 -166.17842 3252 ft 261 kts 239°
2026-04-12 01:22 54.37128 -166.20411 3123 ft 255 kts 240°
2026-04-12 01:22 54.36163 -166.22942 2998 ft 252 kts 240°
2026-04-12 01:22 54.35196 -166.25422 2869 ft 249 kts 240°
2026-04-12 01:22 54.34237 -166.27887 2745 ft 248 kts 239°
2026-04-12 01:23 54.33286 -166.30349 2621 ft 249 kts 239°
2026-04-12 01:23 54.32327 -166.32829 2508 ft 248 kts 240°
2026-04-12 01:23 54.31393 -166.35240 2507 ft 243 kts 239°
2026-04-12 01:23 54.30460 -166.37639 2506 ft 241 kts 239°
2026-04-12 01:24 54.29532 -166.40023 2506 ft 240 kts 240°
2026-04-12 01:24 54.28612 -166.42395 2496 ft 237 kts 240°
2026-04-12 01:24 54.27700 -166.44737 2496 ft 236 kts 239°
2026-04-12 01:24 54.26794 -166.47068 2491 ft 235 kts 239°
2026-04-12 01:25 54.25885 -166.49399 2500 ft 235 kts 239°
2026-04-12 01:25 54.24972 -166.51738 2498 ft 237 kts 239°
2026-04-12 01:25 54.23967 -166.53966 2499 ft 238 kts 225°
2026-04-12 01:25 54.22562 -166.55356 2504 ft 242 kts 199°
2026-04-12 01:26 54.21007 -166.55846 2506 ft 242 kts 188°
2026-04-12 01:26 54.19381 -166.56241 2512 ft 238 kts 191°
2026-04-12 01:26 54.17742 -166.56793 2508 ft 234 kts 194°
2026-04-12 01:26 54.16161 -166.57360 2510 ft 229 kts 194°
2026-04-12 01:27 54.14608 -166.57881 2505 ft 225 kts 194°
2026-04-12 01:27 54.13087 -166.58378 2501 ft 219 kts 193°
2026-04-12 01:27 54.11618 -166.58880 2500 ft 211 kts 192°
2026-04-12 01:27 54.10187 -166.59332 2502 ft 206 kts 188°
2026-04-12 01:28 54.08783 -166.59192 2496 ft 200 kts 174°
2026-04-12 01:28 54.07430 -166.58826 2496 ft 194 kts 174°
2026-04-12 01:28 54.06116 -166.58534 2497 ft 191 kts 176°
2026-04-12 01:28 54.04772 -166.58255 2495 ft 197 kts 175°
2026-04-12 01:29 54.03398 -166.57955 2497 ft 201 kts 175°
2026-04-12 01:29 54.02003 -166.57649 2497 ft 203 kts 175°
2026-04-12 01:29 54.00603 -166.57343 2494 ft 202 kts 175°
2026-04-12 01:29 53.99206 -166.57027 2438 ft 202 kts 175°
2026-04-12 01:30 53.97816 -166.56882 2154 ft 200 kts 182°
2026-04-12 01:30 53.96453 -166.56841 1937 ft 190 kts 181°
2026-04-12 01:30 53.95199 -166.57017 1872 ft 172 kts 198°
2026-04-12 01:30 53.94131 -166.57587 1600 ft 149 kts 198°
2026-04-12 01:31 53.93164 -166.57659 1301 ft 136 kts 173°
2026-04-12 01:31 53.92271 -166.57302 967 ft 126 kts 168°
2026-04-12 01:31 53.91476 -166.56738 626 ft 119 kts 158°
2026-04-12 01:31 53.90805 -166.55973 247 ft 115 kts 141°
2026-04-12 01:32 53.90250 -166.55100 39 ft 100 kts 140°
2026-04-12 01:32 53.89796 -166.54361 22 ft 76 kts 135°
2026-04-12 01:32 53.89603 -166.54050 26 ft 9 kts 178°
2026-04-12 01:32 53.89546 -166.54113 24 ft 8 kts 224°
2026-04-12 01:33 53.89531 -166.54135 22 ft 3 kts 223°
2026-04-12 01:33 53.89518 -166.54196 17 ft 0 kts 274°